Tracking 30072 objects as of 15-Jan-2025
HD Live streaming from Space Station
objects crossing your sky now

GEESAT 2-06

Track GEESAT 2-06 now!
10-day predictions


NORAD ID: 58910
Int'l Code: 2024-023F
Perigee: 579.0 km
Apogee: 590.9 km
Inclination: 50.0 °
Period: 96.2 minutes
Semi major axis: 6955 km
RCS: Unknown
Launch date: February 2, 2024
Source: People's Republic of China (PRC)
Launch site: Xichang Space Center, China (XSC)
Your satellite tracking list
Your tracking list is empty




NASA's NSSDC Master Catalog

Two Line Element Set (TLE):
1 58910U 24023F   25014.92519938  .00006401  00000-0  57863-3 0  9995
2 58910  49.9868 246.6751 0008533 175.5004 184.6018 14.96471957 51817
Source of the keplerian elements: AFSPC